Location: Marcé
(47.5801°N, 0.3280°W)
Time: 05:19:25
(UTC+01:00)

ISS - Pass Details

Date: 25 October 2021
Orbit: 417 x 422 km, 51.6° (Epoch: 04 December)

Event Time Altitude Azimuth Distance (km) Brightness Sun altitude
Exits shadow 07:50:57 - 250° (WSW) 1,651 -1.3 -8.0°
Reaches altitude 10° 07:51:20 10° 251° (WSW) 1,498 -1.5 -8.0°
Maximum altitude 07:54:42 78° 338° (NNW) 433 -3.8 -7.4°
Drops below altitude 10° 07:58:04 10° 65° (ENE) 1,500 0.0 -6.9°
Sets 08:00:10 0° 67° (ENE) 2,365 1.1 -6.5°
